Time,TemperatureF,DewpointF,PressureIn,WindDirection,WindDirectionDegrees,WindSpeedMPH,WindSpeedGustMPH,Humidity,HourlyPrecipIn,Conditions,Clouds,dailyrainin,SoftwareType,DateUTC
2013-02-22 00:00:00,27.0,15.0,-100.00,NNW,347,3.0,16.0,59,-99.99,,,-99.99,,2013-02-22 05:00:00,
2013-02-22 00:22:00,27.0,15.0,-100.00,NNW,347,3.0,16.0,59,-99.99,,,-99.99,,2013-02-22 05:22:00,
2013-02-22 00:32:00,27.0,15.0,-100.00,NNW,347,3.0,16.0,59,-99.99,,,-99.99,,2013-02-22 05:32:00,
2013-02-22 00:42:00,27.0,15.0,-100.00,NNW,347,3.0,16.0,59,-99.99,,,-99.99,,2013-02-22 05:42:00,
2013-02-22 00:52:00,27.0,15.0,-100.00,NNW,347,3.0,16.0,59,-99.99,,,-99.99,,2013-02-22 05:52:00,
2013-02-22 01:00:00,26.0,14.0,-100.00,North,3,6.0,10.0,61,-99.99,,,-99.99,,2013-02-22 06:00:00,
2013-02-22 01:22:00,26.0,14.0,-100.00,North,3,6.0,10.0,61,-99.99,,,-99.99,,2013-02-22 06:22:00,
2013-02-22 01:32:00,26.0,14.0,-100.00,North,3,6.0,10.0,61,-99.99,,,-99.99,,2013-02-22 06:32:00,
2013-02-22 01:42:00,26.0,14.0,-100.00,North,3,6.0,10.0,61,-99.99,,,-99.99,,2013-02-22 06:42:00,
2013-02-22 01:52:00,26.0,14.0,-100.00,North,3,6.0,10.0,61,-99.99,,,-99.99,,2013-02-22 06:52:00,
2013-02-22 02:00:00,25.0,14.0,-100.00,North,0,3.0,11.0,64,-99.99,,,-99.99,,2013-02-22 07:00:00,
2013-02-22 02:22:00,25.0,14.0,-100.00,North,0,3.0,11.0,64,-99.99,,,-99.99,,2013-02-22 07:22:00,
2013-02-22 02:32:00,25.0,14.0,-100.00,North,0,3.0,11.0,64,-99.99,,,-99.99,,2013-02-22 07:32:00,
2013-02-22 02:42:00,25.0,14.0,-100.00,North,0,3.0,11.0,64,-99.99,,,-99.99,,2013-02-22 07:42:00,
2013-02-22 02:52:00,25.0,14.0,-100.00,North,0,3.0,11.0,64,-99.99,,,-99.99,,2013-02-22 07:52:00,
2013-02-22 03:00:00,24.0,15.0,-100.00,North,351,4.0,8.0,66,-99.99,,,-99.99,,2013-02-22 08:00:00,
2013-02-22 03:32:00,24.0,15.0,-100.00,North,351,4.0,8.0,66,-99.99,,,-99.99,,2013-02-22 08:32:00,
2013-02-22 03:42:00,24.0,15.0,-100.00,North,351,4.0,8.0,66,-99.99,,,-99.99,,2013-02-22 08:42:00,
2013-02-22 03:52:00,24.0,15.0,-100.00,North,351,4.0,8.0,66,-99.99,,,-99.99,,2013-02-22 08:52:00,
2013-02-22 04:00:00,24.0,14.0,-100.00,North,0,5.0,11.0,67,-99.99,,,-99.99,,2013-02-22 09:00:00,
2013-02-22 04:22:00,24.0,14.0,-100.00,North,0,5.0,11.0,67,-99.99,,,-99.99,,2013-02-22 09:22:00,
2013-02-22 04:32:00,24.0,14.0,-100.00,North,0,5.0,11.0,67,-99.99,,,-99.99,,2013-02-22 09:32:00,
2013-02-22 04:42:00,24.0,14.0,-100.00,North,0,5.0,11.0,67,-99.99,,,-99.99,,2013-02-22 09:42:00,
2013-02-22 04:52:00,24.0,14.0,-100.00,North,0,5.0,11.0,67,-99.99,,,-99.99,,2013-02-22 09:52:00,
2013-02-22 05:00:00,24.0,15.0,-100.00,NNE,14,6.0,9.0,67,-99.99,,,-99.99,,2013-02-22 10:00:00,
2013-02-22 05:22:00,24.0,15.0,-100.00,NNE,14,6.0,9.0,67,-99.99,,,-99.99,,2013-02-22 10:22:00,
2013-02-22 05:32:00,24.0,15.0,-100.00,NNE,14,6.0,9.0,67,-99.99,,,-99.99,,2013-02-22 10:32:00,
2013-02-22 05:42:00,24.0,15.0,-100.00,NNE,14,6.0,9.0,67,-99.99,,,-99.99,,2013-02-22 10:42:00,
2013-02-22 05:52:00,24.0,15.0,-100.00,NNE,14,6.0,9.0,67,-99.99,,,-99.99,,2013-02-22 10:52:00,
2013-02-22 06:00:00,24.0,15.0,-100.00,NNE,16,4.0,9.0,68,-99.99,,,-99.99,,2013-02-22 11:00:00,
2013-02-22 06:22:00,24.0,15.0,-100.00,NNE,16,4.0,9.0,68,-99.99,,,-99.99,,2013-02-22 11:22:00,
2013-02-22 06:32:00,24.0,15.0,-100.00,NNE,16,4.0,9.0,68,-99.99,,,-99.99,,2013-02-22 11:32:00,
2013-02-22 06:42:00,24.0,15.0,-100.00,NNE,16,4.0,9.0,68,-99.99,,,-99.99,,2013-02-22 11:42:00,
2013-02-22 06:52:00,24.0,15.0,-100.00,NNE,16,4.0,9.0,68,-99.99,,,-99.99,,2013-02-22 11:52:00,
2013-02-22 07:00:00,24.0,16.0,-100.00,North,355,3.0,8.0,70,-99.99,,,-99.99,,2013-02-22 12:00:00,
2013-02-22 07:22:00,24.0,16.0,-100.00,North,355,3.0,8.0,70,-99.99,,,-99.99,,2013-02-22 12:22:00,
2013-02-22 07:32:00,24.0,16.0,-100.00,North,355,3.0,8.0,70,-99.99,,,-99.99,,2013-02-22 12:32:00,
2013-02-22 07:42:00,24.0,16.0,-100.00,North,355,3.0,8.0,70,-99.99,,,-99.99,,2013-02-22 12:42:00,
2013-02-22 07:52:00,24.0,16.0,-100.00,North,355,3.0,8.0,70,-99.99,,,-99.99,,2013-02-22 12:52:00,
2013-02-22 08:00:00,25.0,16.0,-100.00,NNE,28,3.0,7.0,69,-99.99,,,-99.99,,2013-02-22 13:00:00,
2013-02-22 08:32:00,25.0,16.0,-100.00,NNE,28,3.0,7.0,69,-99.99,,,-99.99,,2013-02-22 13:32:00,
2013-02-22 08:42:00,25.0,16.0,-100.00,NNE,28,3.0,7.0,69,-99.99,,,-99.99,,2013-02-22 13:42:00,
2013-02-22 08:52:00,25.0,16.0,-100.00,NNE,28,3.0,7.0,69,-99.99,,,-99.99,,2013-02-22 13:52:00,
2013-02-22 09:00:00,27.0,17.0,-100.00,NE,46,5.0,8.0,64,-99.99,,,-99.99,,2013-02-22 14:00:00,
2013-02-22 09:22:00,27.0,17.0,-100.00,NE,46,5.0,8.0,64,-99.99,,,-99.99,,2013-02-22 14:22:00,
2013-02-22 09:32:00,27.0,17.0,-100.00,NE,46,5.0,8.0,64,-99.99,,,-99.99,,2013-02-22 14:32:00,
2013-02-22 09:42:00,27.0,17.0,-100.00,NE,46,5.0,8.0,64,-99.99,,,-99.99,,2013-02-22 14:42:00,
2013-02-22 09:53:00,27.0,17.0,-100.00,NE,46,5.0,8.0,64,-99.99,,,-99.99,,2013-02-22 14:53:00,
2013-02-22 10:00:00,30.0,19.0,-100.00,ENE,76,3.0,8.0,64,-99.99,,,-99.99,,2013-02-22 15:00:00,
2013-02-22 10:22:00,30.0,19.0,-100.00,ENE,76,3.0,8.0,64,-99.99,,,-99.99,,2013-02-22 15:22:00,
2013-02-22 10:32:00,30.0,19.0,-100.00,ENE,76,3.0,8.0,64,-99.99,,,-99.99,,2013-02-22 15:32:00,
2013-02-22 10:42:00,30.0,19.0,-100.00,ENE,76,3.0,8.0,64,-99.99,,,-99.99,,2013-02-22 15:42:00,
2013-02-22 10:52:00,30.0,19.0,-100.00,ENE,76,3.0,8.0,64,-99.99,,,-99.99,,2013-02-22 15:52:00,
2013-02-22 11:00:00,32.0,21.0,-100.00,ESE,105,2.0,10.0,64,-99.99,,,-99.99,,2013-02-22 16:00:00,
2013-02-22 11:22:00,32.0,21.0,-100.00,ESE,105,2.0,10.0,64,-99.99,,,-99.99,,2013-02-22 16:22:00,
2013-02-22 11:32:00,32.0,21.0,-100.00,ESE,105,2.0,10.0,64,-99.99,,,-99.99,,2013-02-22 16:32:00,
2013-02-22 11:42:00,32.0,21.0,-100.00,ESE,105,2.0,10.0,64,-99.99,,,-99.99,,2013-02-22 16:42:00,
2013-02-22 11:52:00,32.0,21.0,-100.00,ESE,105,2.0,10.0,64,-99.99,,,-99.99,,2013-02-22 16:52:00,
2013-02-22 12:00:00,36.0,22.0,-100.00,East,87,2.0,9.0,58,-99.99,,,-99.99,,2013-02-22 17:00:00,
2013-02-22 12:22:00,36.0,22.0,-100.00,East,87,2.0,9.0,58,-99.99,,,-99.99,,2013-02-22 17:22:00,
2013-02-22 12:32:00,36.0,22.0,-100.00,East,87,2.0,9.0,58,-99.99,,,-99.99,,2013-02-22 17:32:00,
2013-02-22 12:42:00,36.0,22.0,-100.00,East,87,2.0,9.0,58,-99.99,,,-99.99,,2013-02-22 17:42:00,
2013-02-22 12:52:00,36.0,22.0,-100.00,East,87,2.0,9.0,58,-99.99,,,-99.99,,2013-02-22 17:52:00,
2013-02-22 13:00:00,37.0,24.0,-100.00,ESE,107,3.0,10.0,60,-99.99,,,-99.99,,2013-02-22 18:00:00,
2013-02-22 13:23:00,37.0,24.0,-100.00,ESE,107,3.0,10.0,60,-99.99,,,-99.99,,2013-02-22 18:23:00,
2013-02-22 13:32:00,37.0,24.0,-100.00,ESE,107,3.0,10.0,60,-99.99,,,-99.99,,2013-02-22 18:32:00,
2013-02-22 13:42:00,37.0,24.0,-100.00,ESE,107,3.0,10.0,60,-99.99,,,-99.99,,2013-02-22 18:42:00,
2013-02-22 13:52:00,37.0,24.0,-100.00,ESE,107,3.0,10.0,60,-99.99,,,-99.99,,2013-02-22 18:52:00,
2013-02-22 14:00:00,38.0,24.0,-100.00,SSE,150,3.0,10.0,58,-99.99,,,-99.99,,2013-02-22 19:00:00,
2013-02-22 14:21:00,38.0,24.0,-100.00,SSE,150,3.0,10.0,58,-99.99,,,-99.99,,2013-02-22 19:21:00,
2013-02-22 14:31:00,38.0,24.0,-100.00,SSE,150,3.0,10.0,58,-99.99,,,-99.99,,2013-02-22 19:31:00,
2013-02-22 14:42:00,38.0,24.0,-100.00,SSE,150,3.0,10.0,58,-99.99,,,-99.99,,2013-02-22 19:42:00,
2013-02-22 14:52:00,38.0,24.0,-100.00,SSE,150,3.0,10.0,58,-99.99,,,-99.99,,2013-02-22 19:52:00,
2013-02-22 15:00:00,37.0,25.0,-100.00,SE,145,4.0,7.0,61,-99.99,,,-99.99,,2013-02-22 20:00:00,
2013-02-22 15:22:00,37.0,25.0,-100.00,SE,145,4.0,7.0,61,-99.99,,,-99.99,,2013-02-22 20:22:00,
2013-02-22 15:32:00,37.0,25.0,-100.00,SE,145,4.0,7.0,61,-99.99,,,-99.99,,2013-02-22 20:32:00,
2013-02-22 15:42:00,37.0,25.0,-100.00,SE,145,4.0,7.0,61,-99.99,,,-99.99,,2013-02-22 20:42:00,
2013-02-22 15:52:00,37.0,25.0,-100.00,SE,145,4.0,7.0,61,-99.99,,,-99.99,,2013-02-22 20:52:00,
2013-02-22 16:00:00,37.0,26.0,-100.00,SSE,165,1.0,7.0,65,-99.99,,,-99.99,,2013-02-22 21:00:00,
2013-02-22 16:22:00,37.0,26.0,-100.00,SSE,165,1.0,7.0,65,-99.99,,,-99.99,,2013-02-22 21:22:00,
2013-02-22 16:32:00,37.0,26.0,-100.00,SSE,165,1.0,7.0,65,-99.99,,,-99.99,,2013-02-22 21:32:00,
2013-02-22 16:42:00,37.0,26.0,-100.00,SSE,165,1.0,7.0,65,-99.99,,,-99.99,,2013-02-22 21:42:00,
2013-02-22 16:52:00,37.0,26.0,-100.00,SSE,165,1.0,7.0,65,-99.99,,,-99.99,,2013-02-22 21:52:00,
2013-02-22 17:00:00,36.0,27.0,-100.00,SSE,149,3.0,6.0,71,-99.99,,,-99.99,,2013-02-22 22:00:00,
2013-02-22 17:22:00,36.0,27.0,-100.00,SSE,149,3.0,6.0,71,-99.99,,,-99.99,,2013-02-22 22:22:00,
2013-02-22 17:32:00,36.0,27.0,-100.00,SSE,149,3.0,6.0,71,-99.99,,,-99.99,,2013-02-22 22:32:00,
2013-02-22 17:42:00,36.0,27.0,-100.00,SSE,149,3.0,6.0,71,-99.99,,,-99.99,,2013-02-22 22:42:00,
2013-02-22 17:52:00,36.0,27.0,-100.00,SSE,149,3.0,6.0,71,-99.99,,,-99.99,,2013-02-22 22:52:00,
2013-02-22 18:00:00,35.0,28.0,-100.00,SSE,163,0.0,6.0,75,-99.99,,,-99.99,,2013-02-22 23:00:00,
2013-02-22 18:21:00,35.0,28.0,-100.00,SSE,163,0.0,6.0,75,-99.99,,,-99.99,,2013-02-22 23:21:00,
2013-02-22 18:32:00,35.0,28.0,-100.00,SSE,163,0.0,6.0,75,-99.99,,,-99.99,,2013-02-22 23:32:00,
2013-02-22 18:42:00,35.0,28.0,-100.00,SSE,163,0.0,6.0,75,-99.99,,,-99.99,,2013-02-22 23:42:00,
2013-02-22 18:52:00,35.0,28.0,-100.00,SSE,163,0.0,6.0,75,-99.99,,,-99.99,,2013-02-22 23:52:00,
2013-02-22 19:00:00,35.0,28.0,-100.00,South,190,1.0,2.0,77,-99.99,,,-99.99,,2013-02-23 00:00:00,
2013-02-22 19:22:00,35.0,28.0,-100.00,South,190,1.0,2.0,77,-99.99,,,-99.99,,2013-02-23 00:22:00,
2013-02-22 19:32:00,35.0,28.0,-100.00,South,190,1.0,2.0,77,-99.99,,,-99.99,,2013-02-23 00:32:00,
2013-02-22 19:42:00,35.0,28.0,-100.00,South,190,1.0,2.0,77,-99.99,,,-99.99,,2013-02-23 00:42:00,
2013-02-22 19:52:00,35.0,28.0,-100.00,South,190,1.0,2.0,77,-99.99,,,-99.99,,2013-02-23 00:52:00,
2013-02-22 20:00:00,34.0,29.0,-100.00,SW,236,0.0,2.0,79,-99.99,,,-99.99,,2013-02-23 01:00:00,
2013-02-22 20:32:00,34.0,29.0,-100.00,SW,236,0.0,2.0,79,-99.99,,,-99.99,,2013-02-23 01:32:00,
2013-02-22 20:42:00,34.0,29.0,-100.00,SW,236,0.0,2.0,79,-99.99,,,-99.99,,2013-02-23 01:42:00,
2013-02-22 20:52:00,34.0,29.0,-100.00,SW,236,0.0,2.0,79,-99.99,,,-99.99,,2013-02-23 01:52:00,
2013-02-22 21:00:00,33.0,30.0,-100.00,NE,50,0.0,2.0,89,-99.99,,,-99.99,,2013-02-23 02:00:00,
2013-02-22 21:22:00,33.0,30.0,-100.00,NE,50,0.0,2.0,89,-99.99,,,-99.99,,2013-02-23 02:22:00,
2013-02-22 21:32:00,33.0,30.0,-100.00,NE,50,0.0,2.0,89,-99.99,,,-99.99,,2013-02-23 02:32:00,
2013-02-22 21:42:00,33.0,30.0,-100.00,NE,50,0.0,2.0,89,-99.99,,,-99.99,,2013-02-23 02:42:00,
2013-02-22 21:52:00,33.0,30.0,-100.00,NE,50,0.0,2.0,89,-99.99,,,-99.99,,2013-02-23 02:52:00,
2013-02-22 22:00:00,33.0,31.0,-100.00,NNE,25,0.0,2.0,92,-99.99,,,-99.99,,2013-02-23 03:00:00,
2013-02-22 22:22:00,33.0,31.0,-100.00,NNE,25,0.0,2.0,92,-99.99,,,-99.99,,2013-02-23 03:22:00,
2013-02-22 22:32:00,33.0,31.0,-100.00,NNE,25,0.0,2.0,92,-99.99,,,-99.99,,2013-02-23 03:32:00,
2013-02-22 22:42:00,33.0,31.0,-100.00,NNE,25,0.0,2.0,92,-99.99,,,-99.99,,2013-02-23 03:42:00,
2013-02-22 22:52:00,33.0,31.0,-100.00,NNE,25,0.0,2.0,92,-99.99,,,-99.99,,2013-02-23 03:52:00,
2013-02-22 23:00:00,33.0,31.0,-100.00,ENE,66,1.0,3.0,95,-99.99,,,-99.99,,2013-02-23 04:00:00,
2013-02-22 23:21:00,33.0,31.0,-100.00,ENE,66,1.0,3.0,95,-99.99,,,-99.99,,2013-02-23 04:21:00,
2013-02-22 23:32:00,33.0,31.0,-100.00,ENE,66,1.0,3.0,95,-99.99,,,-99.99,,2013-02-23 04:32:00,
2013-02-22 23:42:00,33.0,31.0,-100.00,ENE,66,1.0,3.0,95,-99.99,,,-99.99,,2013-02-23 04:42:00,
2013-02-22 23:52:00,33.0,31.0,-100.00,ENE,66,1.0,3.0,95,-99.99,,,-99.99,,2013-02-23 04:52:00,